TimeMST,TemperatureF,Dew PointF,Humidity,Sea Level PressureIn,VisibilityMPH,Wind Direction,Wind SpeedMPH,Gust SpeedMPH,PrecipitationIn,Events,Conditions,WindDirDegrees,DateUTC
12:53 AM,39.9,19.9,45,29.70,10.0,SW,9.2,-,N/A,,Mostly Cloudy,230,2013-01-08 07:53:00
1:53 AM,37.0,19.0,48,29.72,10.0,WSW,13.8,-,N/A,,Scattered Clouds,240,2013-01-08 08:53:00
2:53 AM,36.0,19.0,50,29.74,10.0,WSW,16.1,-,0.00,,Mostly Cloudy,240,2013-01-08 09:53:00
3:53 AM,36.0,19.9,52,29.75,10.0,WSW,16.1,-,0.00,Snow,Light Snow,240,2013-01-08 10:53:00
4:53 AM,39.9,21.0,47,29.76,10.0,West,17.3,-,0.00,,Mostly Cloudy,260,2013-01-08 11:53:00
5:53 AM,41.0,23.0,49,29.77,10.0,West,21.9,29.9,0.00,,Scattered Clouds,270,2013-01-08 12:53:00
6:53 AM,39.9,21.9,49,29.79,10.0,West,21.9,28.8,N/A,,Scattered Clouds,280,2013-01-08 13:53:00
7:53 AM,39.9,21.9,49,29.84,10.0,WNW,16.1,-,N/A,,Overcast,290,2013-01-08 14:53:00
8:53 AM,41.0,21.0,45,29.81,10.0,WNW,20.7,-,N/A,,Partly Cloudy,290,2013-01-08 15:53:00
9:53 AM,43.0,19.0,38,29.84,10.0,West,17.3,-,N/A,,Partly Cloudy,280,2013-01-08 16:53:00
10:53 AM,44.1,19.0,37,29.85,10.0,WNW,18.4,-,N/A,,Partly Cloudy,290,2013-01-08 17:53:00
11:53 AM,46.9,14.0,27,29.87,10.0,WNW,29.9,38.0,N/A,,Scattered Clouds,300,2013-01-08 18:53:00
12:53 PM,46.0,12.9,26,29.88,10.0,NW,27.6,40.3,N/A,,Partly Cloudy,320,2013-01-08 19:53:00
1:53 PM,45.0,12.0,26,29.91,10.0,NW,21.9,34.5,N/A,,Partly Cloudy,320,2013-01-08 20:53:00
2:53 PM,45.0,12.0,26,29.95,10.0,NW,16.1,26.5,N/A,,Partly Cloudy,320,2013-01-08 21:53:00
3:53 PM,44.1,15.1,31,29.96,10.0,WNW,24.2,-,N/A,,Scattered Clouds,290,2013-01-08 22:53:00
4:53 PM,39.0,16.0,39,29.97,10.0,WNW,10.4,-,N/A,,Scattered Clouds,300,2013-01-08 23:53:00
5:53 PM,37.0,17.1,44,29.98,10.0,NW,8.1,-,N/A,,Scattered Clouds,320,2013-01-09 00:53:00
6:53 PM,37.0,18.0,46,29.98,10.0,NW,5.8,-,N/A,,Mostly Cloudy,320,2013-01-09 01:53:00
7:53 PM,37.4,17.6,45,29.99,10.0,SW,3.5,-,N/A,,Scattered Clouds,230,2013-01-09 02:53:00
8:53 PM,33.8,17.6,52,29.98,10.0,South,5.8,-,N/A,,Partly Cloudy,180,2013-01-09 03:53:00
9:53 PM,35.1,18.0,50,30.03,10.0,SW,4.6,-,N/A,,Mostly Cloudy,220,2013-01-09 04:53:00
10:53 PM,34.0,18.0,52,30.04,10.0,SW,9.2,-,N/A,,Mostly Cloudy,230,2013-01-09 05:53:00
11:53 PM,33.1,18.0,54,30.02,10.0,SW,13.8,-,N/A,,Partly Cloudy,230,2013-01-09 06:53:00